Year,Month,Day,Hour,Minute,Value (Times are PST for temperature in C)
2023,10,07,00,00,12.60
2023,10,07,00,01,12.60
2023,10,07,00,02,12.60
2023,10,07,00,03,12.60
2023,10,07,00,04,12.60
2023,10,07,00,05,12.60
2023,10,07,00,06,12.50
2023,10,07,00,07,12.50
2023,10,07,00,08,12.50
2023,10,07,00,09,12.50
2023,10,07,00,10,12.50
2023,10,07,00,11,12.50
2023,10,07,00,12,12.40
2023,10,07,00,13,12.40
2023,10,07,00,14,12.40
2023,10,07,00,15,12.40
2023,10,07,00,16,12.40
2023,10,07,00,17,12.40
2023,10,07,00,18,12.30
2023,10,07,00,19,12.30
2023,10,07,00,20,12.30
2023,10,07,00,21,12.30
2023,10,07,00,22,12.20
2023,10,07,00,23,12.20
2023,10,07,00,24,12.20
2023,10,07,00,25,12.20
2023,10,07,00,26,12.20
2023,10,07,00,27,12.10
2023,10,07,00,28,12.10
2023,10,07,00,29,12.10
2023,10,07,00,30,12.10
2023,10,07,00,31,12.10
2023,10,07,00,32,12.00
2023,10,07,00,33,12.00
2023,10,07,00,34,12.00
2023,10,07,00,35,12.00
2023,10,07,00,36,11.90
2023,10,07,00,37,11.90
2023,10,07,00,38,11.90
2023,10,07,00,39,11.90
2023,10,07,00,40,11.90
2023,10,07,00,41,11.90
2023,10,07,00,42,11.90
2023,10,07,00,43,11.90
2023,10,07,00,44,11.90
2023,10,07,00,45,11.90
2023,10,07,00,46,11.90
2023,10,07,00,47,12.00
2023,10,07,00,48,12.00
2023,10,07,00,49,12.00
2023,10,07,00,50,12.00
2023,10,07,00,51,12.00
2023,10,07,00,52,12.00
2023,10,07,00,53,12.00
2023,10,07,00,54,12.00
2023,10,07,00,55,12.00
2023,10,07,00,56,12.00
2023,10,07,00,57,12.00
2023,10,07,00,58,12.00
2023,10,07,00,59,11.90
2023,10,07,01,00,11.90
2023,10,07,01,01,11.90
2023,10,07,01,02,11.90
2023,10,07,01,03,11.90
2023,10,07,01,04,11.80
2023,10,07,01,05,11.80
2023,10,07,01,06,11.80
2023,10,07,01,07,11.80
2023,10,07,01,08,11.80
2023,10,07,01,09,11.70
2023,10,07,01,10,11.70
2023,10,07,01,11,11.70
2023,10,07,01,12,11.70
2023,10,07,01,13,11.70
2023,10,07,01,14,11.70
2023,10,07,01,15,11.70
2023,10,07,01,16,11.60
2023,10,07,01,17,11.60
2023,10,07,01,18,11.60
2023,10,07,01,19,11.60
2023,10,07,01,20,11.60
2023,10,07,01,21,11.70
2023,10,07,01,22,11.70
2023,10,07,01,23,11.70
2023,10,07,01,24,11.70
2023,10,07,01,25,11.70
2023,10,07,01,26,11.70
2023,10,07,01,27,11.70
2023,10,07,01,28,11.70
2023,10,07,01,29,11.70
2023,10,07,01,30,11.70
2023,10,07,01,31,11.70
2023,10,07,01,32,11.70
2023,10,07,01,33,11.60
2023,10,07,01,34,11.60
2023,10,07,01,35,11.60
2023,10,07,01,36,11.60
2023,10,07,01,37,11.60
2023,10,07,01,38,11.60
2023,10,07,01,39,11.50
2023,10,07,01,40,11.50
2023,10,07,01,41,11.40
2023,10,07,01,42,11.40
2023,10,07,01,43,11.40
2023,10,07,01,44,11.30
2023,10,07,01,45,11.30
2023,10,07,01,46,11.30
2023,10,07,01,47,11.30
2023,10,07,01,48,11.30
2023,10,07,01,49,11.30
2023,10,07,01,50,11.20
2023,10,07,01,51,11.20
2023,10,07,01,52,11.20
2023,10,07,01,53,11.20
2023,10,07,01,54,11.20
2023,10,07,01,55,11.20
2023,10,07,01,56,11.20
2023,10,07,01,57,11.20
2023,10,07,01,58,11.20
2023,10,07,01,59,11.10
2023,10,07,02,00,11.10
2023,10,07,02,01,11.10
2023,10,07,02,02,11.10
2023,10,07,02,03,11.10
2023,10,07,02,04,11.10
2023,10,07,02,05,11.00
2023,10,07,02,06,11.00
2023,10,07,02,07,11.00
2023,10,07,02,08,10.90
2023,10,07,02,09,10.90
2023,10,07,02,10,10.90
2023,10,07,02,11,10.90
2023,10,07,02,12,10.90
2023,10,07,02,13,10.80
2023,10,07,02,14,10.80
2023,10,07,02,15,10.80
2023,10,07,02,16,10.80
2023,10,07,02,17,10.80
2023,10,07,02,18,10.80
2023,10,07,02,19,10.70
2023,10,07,02,20,10.70
2023,10,07,02,21,10.70
2023,10,07,02,22,10.70
2023,10,07,02,23,10.70
2023,10,07,02,24,10.70
2023,10,07,02,25,10.70
2023,10,07,02,26,10.70
2023,10,07,02,27,10.70
2023,10,07,02,28,10.70
2023,10,07,02,29,10.70
2023,10,07,02,30,10.70
2023,10,07,02,31,10.70
2023,10,07,02,32,10.70
2023,10,07,02,33,10.70
2023,10,07,02,34,10.70
2023,10,07,02,35,10.70
2023,10,07,02,36,10.70
2023,10,07,02,37,10.70
2023,10,07,02,38,10.70
2023,10,07,02,39,10.70
2023,10,07,02,40,10.70
2023,10,07,02,41,10.60
2023,10,07,02,42,10.60
2023,10,07,02,43,10.60
2023,10,07,02,44,10.60
2023,10,07,02,45,10.50
2023,10,07,02,46,10.50
2023,10,07,02,47,10.50
2023,10,07,02,48,10.40
2023,10,07,02,49,10.40
2023,10,07,02,50,10.40
2023,10,07,02,51,10.40
2023,10,07,02,52,10.40
2023,10,07,02,53,10.40
2023,10,07,02,54,10.40
2023,10,07,02,55,10.30
2023,10,07,02,56,10.30
2023,10,07,02,57,10.30
2023,10,07,02,58,10.30
2023,10,07,02,59,10.30
2023,10,07,03,00,10.30
2023,10,07,03,01,10.30
2023,10,07,03,02,10.30
2023,10,07,03,03,10.30
2023,10,07,03,04,10.30
2023,10,07,03,05,10.30
2023,10,07,03,06,10.30
2023,10,07,03,07,10.30
2023,10,07,03,08,10.30
2023,10,07,03,09,10.30
2023,10,07,03,10,10.30
2023,10,07,03,11,10.30
2023,10,07,03,12,10.30
2023,10,07,03,13,10.30
2023,10,07,03,14,10.30
2023,10,07,03,15,10.30
2023,10,07,03,16,10.30
2023,10,07,03,17,10.40
2023,10,07,03,18,10.40
2023,10,07,03,19,10.40
2023,10,07,03,20,10.40
2023,10,07,03,21,10.50
2023,10,07,03,22,10.60
2023,10,07,03,23,10.60
2023,10,07,03,24,10.70
2023,10,07,03,25,10.80
2023,10,07,03,26,10.80
2023,10,07,03,27,10.90
2023,10,07,03,28,10.90
2023,10,07,03,29,10.90
2023,10,07,03,30,11.00
2023,10,07,03,31,11.00
2023,10,07,03,32,11.00
2023,10,07,03,33,11.00
2023,10,07,03,34,11.00
2023,10,07,03,35,11.00
2023,10,07,03,36,10.90
2023,10,07,03,37,10.90
2023,10,07,03,38,10.90
2023,10,07,03,39,10.90
2023,10,07,03,40,10.80
2023,10,07,03,41,10.80
2023,10,07,03,42,10.80
2023,10,07,03,43,10.80
2023,10,07,03,44,10.70
2023,10,07,03,45,10.60
2023,10,07,03,46,10.60
2023,10,07,03,47,10.60
2023,10,07,03,48,10.50
2023,10,07,03,49,10.50
2023,10,07,03,50,10.40
2023,10,07,03,51,10.40
2023,10,07,03,52,10.40
2023,10,07,03,53,10.30
2023,10,07,03,54,10.30
2023,10,07,03,55,10.30
2023,10,07,03,56,10.30
2023,10,07,03,57,10.30
2023,10,07,03,58,10.30
2023,10,07,03,59,10.30
2023,10,07,04,00,10.30
2023,10,07,04,01,10.30
2023,10,07,04,02,10.30
2023,10,07,04,03,10.30
2023,10,07,04,04,10.40
2023,10,07,04,05,10.40
2023,10,07,04,06,10.40
2023,10,07,04,07,10.40
2023,10,07,04,08,10.40
2023,10,07,04,09,10.50
2023,10,07,04,10,10.50
2023,10,07,04,11,10.60
2023,10,07,04,12,10.60
2023,10,07,04,13,10.60
2023,10,07,04,14,10.70
2023,10,07,04,15,10.70
2023,10,07,04,16,10.70
2023,10,07,04,17,10.80
2023,10,07,04,18,10.80
2023,10,07,04,19,10.80
2023,10,07,04,20,10.80
2023,10,07,04,21,10.80
2023,10,07,04,22,10.90
2023,10,07,04,23,10.90
2023,10,07,04,24,10.90
2023,10,07,04,25,10.90
2023,10,07,04,26,11.00
2023,10,07,04,27,11.00
2023,10,07,04,28,11.00
2023,10,07,04,29,11.10
2023,10,07,04,30,11.10
2023,10,07,04,31,11.20
2023,10,07,04,32,11.20
2023,10,07,04,33,11.20
2023,10,07,04,34,11.20
2023,10,07,04,35,11.20
2023,10,07,04,36,11.20
2023,10,07,04,37,11.20
2023,10,07,04,38,11.30
2023,10,07,04,39,11.30
2023,10,07,04,40,11.30
2023,10,07,04,41,11.30
2023,10,07,04,42,11.30
2023,10,07,04,43,11.30
2023,10,07,04,44,11.30
2023,10,07,04,45,11.30
2023,10,07,04,46,11.30
2023,10,07,04,47,11.30
2023,10,07,04,48,11.30
2023,10,07,04,49,11.30
2023,10,07,04,50,11.30
2023,10,07,04,51,11.30
2023,10,07,04,52,11.30
2023,10,07,04,53,11.30
2023,10,07,04,54,11.30
2023,10,07,04,55,11.30
2023,10,07,04,56,11.30
2023,10,07,04,57,11.30
2023,10,07,04,58,11.40
2023,10,07,04,59,11.40
2023,10,07,05,00,11.40
2023,10,07,05,01,11.40
2023,10,07,05,02,11.40
2023,10,07,05,03,11.40
2023,10,07,05,04,11.40
2023,10,07,05,05,11.40
2023,10,07,05,06,11.40
2023,10,07,05,07,11.40
2023,10,07,05,08,11.50
2023,10,07,05,09,11.50
2023,10,07,05,10,11.60
2023,10,07,05,11,11.60
2023,10,07,05,12,11.60
2023,10,07,05,13,11.60
2023,10,07,05,14,11.70
2023,10,07,05,15,11.70
2023,10,07,05,16,11.70
2023,10,07,05,17,11.70
2023,10,07,05,18,11.70
2023,10,07,05,19,11.80
2023,10,07,05,20,11.80
2023,10,07,05,21,11.70
2023,10,07,05,22,11.70
2023,10,07,05,23,11.70
2023,10,07,05,24,11.70
2023,10,07,05,25,11.70
2023,10,07,05,26,11.70
2023,10,07,05,27,11.70
2023,10,07,05,28,11.60
2023,10,07,05,29,11.60
2023,10,07,05,30,11.60
2023,10,07,05,31,11.70
2023,10,07,05,32,11.70
2023,10,07,05,33,11.60
2023,10,07,05,34,11.60
2023,10,07,05,35,11.60
2023,10,07,05,36,11.60
2023,10,07,05,37,11.60
2023,10,07,05,38,11.60
2023,10,07,05,39,11.60
2023,10,07,05,40,11.60
2023,10,07,05,41,11.50
2023,10,07,05,42,11.50
2023,10,07,05,43,11.50
2023,10,07,05,44,11.50
2023,10,07,05,45,11.50
2023,10,07,05,46,11.50
2023,10,07,05,47,11.50
2023,10,07,05,48,11.60
2023,10,07,05,49,11.60
2023,10,07,05,50,11.60
2023,10,07,05,51,11.50
2023,10,07,05,52,11.50
2023,10,07,05,53,11.50
2023,10,07,05,54,11.50
2023,10,07,05,55,11.50
2023,10,07,05,56,11.50
2023,10,07,05,57,11.50
2023,10,07,05,58,11.50
2023,10,07,05,59,11.50
2023,10,07,06,00,11.50
2023,10,07,06,01,11.50
2023,10,07,06,02,11.50
2023,10,07,06,03,11.50
2023,10,07,06,04,11.50
2023,10,07,06,05,11.40
2023,10,07,06,06,11.40
2023,10,07,06,07,11.40
2023,10,07,06,08,11.40
2023,10,07,06,09,11.40
2023,10,07,06,10,11.40
2023,10,07,06,11,11.40
2023,10,07,06,12,11.40
2023,10,07,06,13,11.40
2023,10,07,06,14,11.40
2023,10,07,06,15,11.40
2023,10,07,06,16,11.40
2023,10,07,06,17,11.40
2023,10,07,06,18,11.40
2023,10,07,06,19,11.30
2023,10,07,06,20,11.30
2023,10,07,06,21,11.30
2023,10,07,06,22,11.30
2023,10,07,06,23,11.30
2023,10,07,06,24,11.30
2023,10,07,06,25,11.30
2023,10,07,06,26,11.30
2023,10,07,06,27,11.30
2023,10,07,06,28,11.30
2023,10,07,06,29,11.20
2023,10,07,06,30,11.20
2023,10,07,06,31,11.20
2023,10,07,06,32,11.20
2023,10,07,06,33,11.20
2023,10,07,06,34,11.20
2023,10,07,06,35,11.20
2023,10,07,06,36,11.20
2023,10,07,06,37,11.10
2023,10,07,06,38,11.10
2023,10,07,06,39,11.10
2023,10,07,06,40,11.10
2023,10,07,06,41,11.10
2023,10,07,06,42,11.10
2023,10,07,06,43,11.10
2023,10,07,06,44,11.00
2023,10,07,06,45,11.00
2023,10,07,06,46,11.00
2023,10,07,06,47,11.00
2023,10,07,06,48,11.00
2023,10,07,06,49,11.00
2023,10,07,06,50,11.10
2023,10,07,06,51,11.10
2023,10,07,06,52,11.10
2023,10,07,06,53,11.10
2023,10,07,06,54,11.10
2023,10,07,06,55,11.10
2023,10,07,06,56,11.10
2023,10,07,06,57,11.20
2023,10,07,06,58,11.20
2023,10,07,06,59,11.20
2023,10,07,07,00,11.20
2023,10,07,07,01,11.20
2023,10,07,07,02,11.20
2023,10,07,07,03,11.30
2023,10,07,07,04,11.30
2023,10,07,07,05,11.30
2023,10,07,07,06,11.30
2023,10,07,07,07,11.30
2023,10,07,07,08,11.30
2023,10,07,07,09,11.30
2023,10,07,07,10,11.30
2023,10,07,07,11,11.30
2023,10,07,07,12,11.30
2023,10,07,07,13,11.30
2023,10,07,07,14,11.30
2023,10,07,07,15,11.30
2023,10,07,07,16,11.30
2023,10,07,07,17,11.30
2023,10,07,07,18,11.30
2023,10,07,07,19,11.30
2023,10,07,07,20,11.30
2023,10,07,07,21,11.40
2023,10,07,07,22,11.40
2023,10,07,07,23,11.40
2023,10,07,07,24,11.40
2023,10,07,07,25,11.40
2023,10,07,07,26,11.50
2023,10,07,07,27,11.50
2023,10,07,07,28,11.60
2023,10,07,07,29,11.60
2023,10,07,07,30,11.60
2023,10,07,07,31,11.60
2023,10,07,07,32,11.60
2023,10,07,07,33,11.60
2023,10,07,07,34,11.60
2023,10,07,07,35,11.60
2023,10,07,07,36,11.60
2023,10,07,07,37,11.70
2023,10,07,07,38,11.70
2023,10,07,07,39,11.70
2023,10,07,07,40,11.70
2023,10,07,07,41,11.70
2023,10,07,07,42,11.70
2023,10,07,07,43,11.70
2023,10,07,07,44,11.70
2023,10,07,07,45,11.70
2023,10,07,07,46,11.70
2023,10,07,07,47,11.80
2023,10,07,07,48,11.80
2023,10,07,07,49,11.80
2023,10,07,07,50,11.80
2023,10,07,07,51,11.80
2023,10,07,07,52,11.90
2023,10,07,07,53,11.90
2023,10,07,07,54,12.00
2023,10,07,07,55,12.00
2023,10,07,07,56,12.10
2023,10,07,07,57,12.20
2023,10,07,07,58,12.20
2023,10,07,07,59,12.30
2023,10,07,08,00,12.30
2023,10,07,08,01,12.40
2023,10,07,08,02,12.40
2023,10,07,08,03,12.50
2023,10,07,08,04,12.60
2023,10,07,08,05,12.60
2023,10,07,08,06,12.60
2023,10,07,08,07,12.70
2023,10,07,08,08,12.70
2023,10,07,08,09,12.80
2023,10,07,08,10,12.80
2023,10,07,08,11,12.80
2023,10,07,08,12,12.90
2023,10,07,08,13,13.00
2023,10,07,08,14,13.00
2023,10,07,08,15,13.10
2023,10,07,08,16,13.10
2023,10,07,08,17,13.20
2023,10,07,08,18,13.30
2023,10,07,08,19,13.40
2023,10,07,08,20,13.40
2023,10,07,08,21,13.50
2023,10,07,08,22,13.60
2023,10,07,08,23,13.70
2023,10,07,08,24,13.70
2023,10,07,08,25,13.80
2023,10,07,08,26,13.90
2023,10,07,08,27,13.90
2023,10,07,08,28,14.00
2023,10,07,08,29,14.10
2023,10,07,08,30,14.20
2023,10,07,08,31,14.30
2023,10,07,08,32,14.30
2023,10,07,08,33,14.40
2023,10,07,08,34,14.50
2023,10,07,08,35,14.50
2023,10,07,08,36,14.60
2023,10,07,08,37,14.60
2023,10,07,08,38,14.70
2023,10,07,08,39,14.70
2023,10,07,08,40,14.70
2023,10,07,08,41,14.70
2023,10,07,08,42,14.70
2023,10,07,08,43,14.80
2023,10,07,08,44,14.80
2023,10,07,08,45,14.80
2023,10,07,08,46,14.80
2023,10,07,08,47,14.90
2023,10,07,08,48,14.90
2023,10,07,08,49,15.00
2023,10,07,08,50,15.10
2023,10,07,08,51,15.10
2023,10,07,08,52,15.10
2023,10,07,08,53,15.20
2023,10,07,08,54,15.30
2023,10,07,08,55,15.30
2023,10,07,08,56,15.40
2023,10,07,08,57,15.50
2023,10,07,08,58,15.50
2023,10,07,08,59,15.60
2023,10,07,09,00,15.70
2023,10,07,09,01,15.80
2023,10,07,09,02,15.80
2023,10,07,09,03,15.90
2023,10,07,09,04,15.90
2023,10,07,09,05,16.00
2023,10,07,09,06,16.00
2023,10,07,09,07,16.10
2023,10,07,09,08,16.10
2023,10,07,09,09,16.20
2023,10,07,09,10,16.20
2023,10,07,09,11,16.20
2023,10,07,09,12,16.30
2023,10,07,09,13,16.30
2023,10,07,09,14,16.40
2023,10,07,09,15,16.40
2023,10,07,09,16,16.50
2023,10,07,09,17,16.50
2023,10,07,09,18,16.60
2023,10,07,09,19,16.70
2023,10,07,09,20,16.70
2023,10,07,09,21,16.80
2023,10,07,09,22,16.80
2023,10,07,09,23,16.90
2023,10,07,09,24,16.90
2023,10,07,09,25,17.00
2023,10,07,09,26,17.00
2023,10,07,09,27,17.10
2023,10,07,09,28,17.20
2023,10,07,09,29,17.20
2023,10,07,09,30,17.30
2023,10,07,09,31,17.30
2023,10,07,09,32,17.30
2023,10,07,09,33,17.40
2023,10,07,09,34,17.40
2023,10,07,09,35,17.50
2023,10,07,09,36,17.50
2023,10,07,09,37,17.60
2023,10,07,09,38,17.60
2023,10,07,09,39,17.70
2023,10,07,09,40,17.80
2023,10,07,09,41,17.80
2023,10,07,09,42,17.80
2023,10,07,09,43,17.90
2023,10,07,09,44,18.00
2023,10,07,09,45,18.00
2023,10,07,09,46,18.10
2023,10,07,09,47,18.10
2023,10,07,09,48,18.20
2023,10,07,09,49,18.20
2023,10,07,09,50,18.20
2023,10,07,09,51,18.30
2023,10,07,09,52,18.30
2023,10,07,09,53,18.30
2023,10,07,09,54,18.30
2023,10,07,09,55,18.40
2023,10,07,09,56,18.40
2023,10,07,09,57,18.40
2023,10,07,09,58,18.40
2023,10,07,09,59,18.50
2023,10,07,10,00,18.50
2023,10,07,10,01,18.50
2023,10,07,10,02,18.50
2023,10,07,10,03,18.50
2023,10,07,10,04,18.50
2023,10,07,10,05,18.50
2023,10,07,10,06,18.50
2023,10,07,10,07,18.50
2023,10,07,10,08,18.50
2023,10,07,10,09,18.50
2023,10,07,10,10,18.50
2023,10,07,10,11,18.50
2023,10,07,10,12,18.50
2023,10,07,10,13,18.60
2023,10,07,10,14,18.60
2023,10,07,10,15,18.60
2023,10,07,10,16,18.60
2023,10,07,10,17,18.70
2023,10,07,10,18,18.70
2023,10,07,10,19,18.70
2023,10,07,10,20,18.70
2023,10,07,10,21,18.70
2023,10,07,10,22,18.70
2023,10,07,10,23,18.80
2023,10,07,10,24,18.80
2023,10,07,10,25,18.80
2023,10,07,10,26,18.80
2023,10,07,10,27,18.80
2023,10,07,10,28,18.80
2023,10,07,10,29,18.80
2023,10,07,10,30,18.80
2023,10,07,10,31,18.80
2023,10,07,10,32,18.80
2023,10,07,10,33,18.80
2023,10,07,10,34,18.80
2023,10,07,10,35,18.80
2023,10,07,10,36,18.80
2023,10,07,10,37,18.80
2023,10,07,10,38,18.90
2023,10,07,10,39,18.90
2023,10,07,10,40,18.90
2023,10,07,10,41,18.90
2023,10,07,10,42,18.90
2023,10,07,10,43,18.90
2023,10,07,10,44,19.00
2023,10,07,10,45,19.00
2023,10,07,10,46,19.10
2023,10,07,10,47,19.10
2023,10,07,10,48,19.20
2023,10,07,10,49,19.20
2023,10,07,10,50,19.20
2023,10,07,10,51,19.20
2023,10,07,10,52,19.30
2023,10,07,10,53,19.30
2023,10,07,10,54,19.30
2023,10,07,10,55,19.30
2023,10,07,10,56,19.30
2023,10,07,10,57,19.30
2023,10,07,10,58,19.30
2023,10,07,10,59,19.30
2023,10,07,11,00,19.40
2023,10,07,11,01,19.40
2023,10,07,11,02,19.40
2023,10,07,11,03,19.50
2023,10,07,11,04,19.50
2023,10,07,11,05,19.60
2023,10,07,11,06,19.60
2023,10,07,11,07,19.60
2023,10,07,11,08,19.70
2023,10,07,11,09,19.80
2023,10,07,11,10,19.80
2023,10,07,11,11,19.90
2023,10,07,11,12,19.90
2023,10,07,11,13,20.00
2023,10,07,11,14,20.00
2023,10,07,11,15,20.10
2023,10,07,11,16,20.10
2023,10,07,11,17,20.10
2023,10,07,11,18,20.10
2023,10,07,11,19,20.20
2023,10,07,11,20,20.20
2023,10,07,11,21,20.20
2023,10,07,11,22,20.20
2023,10,07,11,23,20.20
2023,10,07,11,24,20.20
2023,10,07,11,25,20.30
2023,10,07,11,26,20.30
2023,10,07,11,27,20.40
2023,10,07,11,28,20.40
2023,10,07,11,29,20.50
2023,10,07,11,30,20.50
2023,10,07,11,31,20.60
2023,10,07,11,32,20.60
2023,10,07,11,33,20.60
2023,10,07,11,34,20.60
2023,10,07,11,35,20.60
2023,10,07,11,36,20.70
2023,10,07,11,37,20.70
2023,10,07,11,38,20.70
2023,10,07,11,39,20.80
2023,10,07,11,40,20.80
2023,10,07,11,41,20.80
2023,10,07,11,42,20.80
2023,10,07,11,43,20.90
2023,10,07,11,44,21.00
2023,10,07,11,45,21.00
2023,10,07,11,46,21.10
2023,10,07,11,47,21.10
2023,10,07,11,48,21.10
2023,10,07,11,49,21.10
2023,10,07,11,50,21.10
2023,10,07,11,51,21.10
2023,10,07,11,52,21.10
2023,10,07,11,53,21.20
2023,10,07,11,54,21.20
2023,10,07,11,55,21.20
2023,10,07,11,56,21.20
2023,10,07,11,57,21.20
2023,10,07,11,58,21.20
2023,10,07,11,59,21.20
2023,10,07,12,00,21.20
2023,10,07,12,01,21.20
2023,10,07,12,02,21.20
2023,10,07,12,03,21.10
2023,10,07,12,04,21.10
2023,10,07,12,05,21.10
2023,10,07,12,06,21.10
2023,10,07,12,07,21.10
2023,10,07,12,08,21.10
2023,10,07,12,09,21.10
2023,10,07,12,10,21.10
2023,10,07,12,11,21.10
2023,10,07,12,12,21.10
2023,10,07,12,13,21.20
2023,10,07,12,14,21.20
2023,10,07,12,15,21.20
2023,10,07,12,16,21.20
2023,10,07,12,17,21.20
2023,10,07,12,18,21.20
2023,10,07,12,19,21.30
2023,10,07,12,20,21.30
2023,10,07,12,21,21.30
2023,10,07,12,22,21.30
2023,10,07,12,23,21.30
2023,10,07,12,24,21.30
2023,10,07,12,25,21.30
2023,10,07,12,26,21.40
2023,10,07,12,27,21.40
2023,10,07,12,28,21.50
2023,10,07,12,29,21.50
2023,10,07,12,30,21.60
2023,10,07,12,31,21.60
2023,10,07,12,32,21.70
2023,10,07,12,33,21.70
2023,10,07,12,34,21.80
2023,10,07,12,35,21.80
2023,10,07,12,36,21.90
2023,10,07,12,37,21.90
2023,10,07,12,38,21.90
2023,10,07,12,39,21.90
2023,10,07,12,40,22.00
2023,10,07,12,41,22.00
2023,10,07,12,42,22.00
2023,10,07,12,43,22.10
2023,10,07,12,44,22.10
2023,10,07,12,45,22.10
2023,10,07,12,46,22.20
2023,10,07,12,47,22.20
2023,10,07,12,48,22.20
2023,10,07,12,49,22.30
2023,10,07,12,50,22.30
2023,10,07,12,51,22.30
2023,10,07,12,52,22.30
2023,10,07,12,53,22.30
2023,10,07,12,54,22.30
2023,10,07,12,55,22.30
2023,10,07,12,56,22.40
2023,10,07,12,57,22.40
2023,10,07,12,58,22.50
2023,10,07,12,59,22.50
2023,10,07,13,00,22.60
2023,10,07,13,01,22.70
2023,10,07,13,02,22.80
2023,10,07,13,03,22.90
2023,10,07,13,04,22.90
2023,10,07,13,05,23.00
2023,10,07,13,06,23.00
2023,10,07,13,07,23.10
2023,10,07,13,08,23.10
2023,10,07,13,09,23.10
2023,10,07,13,10,23.10
2023,10,07,13,11,23.20
2023,10,07,13,12,23.20
2023,10,07,13,13,23.10
2023,10,07,13,14,23.10
2023,10,07,13,15,23.10
2023,10,07,13,16,23.10
2023,10,07,13,17,23.10
2023,10,07,13,18,23.10
2023,10,07,13,19,23.10
2023,10,07,13,20,23.10
2023,10,07,13,21,23.10
2023,10,07,13,22,23.00
2023,10,07,13,23,23.00
2023,10,07,13,24,23.00
2023,10,07,13,25,23.00
2023,10,07,13,26,22.90
2023,10,07,13,27,22.90
2023,10,07,13,28,22.90
2023,10,07,13,29,22.80
2023,10,07,13,30,22.80
2023,10,07,13,31,22.80
2023,10,07,13,32,22.80
2023,10,07,13,33,22.90
2023,10,07,13,34,22.90
2023,10,07,13,35,22.90
2023,10,07,13,36,22.90
2023,10,07,13,37,23.00
2023,10,07,13,38,23.00
2023,10,07,13,39,23.10
2023,10,07,13,40,23.20
2023,10,07,13,41,23.20
2023,10,07,13,42,23.20
2023,10,07,13,43,23.20
2023,10,07,13,44,23.20
2023,10,07,13,45,23.10
2023,10,07,13,46,23.10
2023,10,07,13,47,23.10
2023,10,07,13,48,23.10
2023,10,07,13,49,23.10
2023,10,07,13,50,23.20
2023,10,07,13,51,23.20
2023,10,07,13,52,23.20
2023,10,07,13,53,23.20
2023,10,07,13,54,23.20
2023,10,07,13,55,23.30
2023,10,07,13,56,23.30
2023,10,07,13,57,23.30
2023,10,07,13,58,23.40
2023,10,07,13,59,23.40
2023,10,07,14,00,23.50
2023,10,07,14,01,23.50
2023,10,07,14,02,23.60
2023,10,07,14,03,23.70
2023,10,07,14,04,23.70
2023,10,07,14,05,23.70
2023,10,07,14,06,23.70
2023,10,07,14,07,23.70
2023,10,07,14,08,23.70
2023,10,07,14,09,23.70
2023,10,07,14,10,23.70
2023,10,07,14,11,23.70
2023,10,07,14,12,23.70
2023,10,07,14,13,23.70
2023,10,07,14,14,23.70
2023,10,07,14,15,23.80
2023,10,07,14,16,23.80
2023,10,07,14,17,23.80
2023,10,07,14,18,23.80
2023,10,07,14,19,23.80
2023,10,07,14,20,23.80
2023,10,07,14,21,23.80
2023,10,07,14,22,23.80
2023,10,07,14,23,23.80
2023,10,07,14,24,23.80
2023,10,07,14,25,23.80
2023,10,07,14,26,23.80
2023,10,07,14,27,23.80
2023,10,07,14,28,23.80
2023,10,07,14,29,23.80
2023,10,07,14,30,23.80
2023,10,07,14,31,23.80
2023,10,07,14,32,23.90
2023,10,07,14,33,23.90
2023,10,07,14,34,24.00
2023,10,07,14,35,24.00
2023,10,07,14,36,24.00
2023,10,07,14,37,24.00
2023,10,07,14,38,24.00
2023,10,07,14,39,24.00
2023,10,07,14,40,24.00
2023,10,07,14,41,24.00
2023,10,07,14,42,24.00
2023,10,07,14,43,24.00
2023,10,07,14,44,24.00
2023,10,07,14,45,24.00
2023,10,07,14,46,24.00
2023,10,07,14,47,24.00
2023,10,07,14,48,24.10
2023,10,07,14,49,24.10
2023,10,07,14,50,24.10
2023,10,07,14,51,24.10
2023,10,07,14,52,24.10
2023,10,07,14,53,24.10
2023,10,07,14,54,24.10
2023,10,07,14,55,24.10
2023,10,07,14,56,24.10
2023,10,07,14,57,24.20
2023,10,07,14,58,24.20
2023,10,07,14,59,24.20
2023,10,07,15,00,24.20
2023,10,07,15,01,24.20
2023,10,07,15,02,24.20
2023,10,07,15,03,24.20
2023,10,07,15,04,24.20
2023,10,07,15,05,24.20
2023,10,07,15,06,24.20
2023,10,07,15,07,24.30
2023,10,07,15,08,24.30
2023,10,07,15,09,24.30
2023,10,07,15,10,24.30
2023,10,07,15,11,24.20
2023,10,07,15,12,24.20
2023,10,07,15,13,24.20
2023,10,07,15,14,24.20
2023,10,07,15,15,24.20
2023,10,07,15,16,24.20
2023,10,07,15,17,24.20
2023,10,07,15,18,24.20
2023,10,07,15,19,24.30
2023,10,07,15,20,24.30
2023,10,07,15,21,24.30
2023,10,07,15,22,24.40
2023,10,07,15,23,24.40
2023,10,07,15,24,24.40
2023,10,07,15,25,24.40
2023,10,07,15,26,24.40
2023,10,07,15,27,24.40
2023,10,07,15,28,24.40
2023,10,07,15,29,24.50
2023,10,07,15,30,24.40
2023,10,07,15,31,24.40
2023,10,07,15,32,24.40
2023,10,07,15,33,24.40
2023,10,07,15,34,24.40
2023,10,07,15,35,24.40
2023,10,07,15,36,24.40
2023,10,07,15,37,24.40
2023,10,07,15,38,24.40
2023,10,07,15,39,24.40
2023,10,07,15,40,24.30
2023,10,07,15,41,24.30
2023,10,07,15,42,24.30
2023,10,07,15,43,24.30
2023,10,07,15,44,24.30
2023,10,07,15,45,24.20
2023,10,07,15,46,24.20
2023,10,07,15,47,24.20
2023,10,07,15,48,24.20
2023,10,07,15,49,24.20
2023,10,07,15,50,24.20
2023,10,07,15,51,24.20
2023,10,07,15,52,24.20
2023,10,07,15,53,24.20
2023,10,07,15,54,24.20
2023,10,07,15,55,24.20
2023,10,07,15,56,24.20
2023,10,07,15,57,24.20
2023,10,07,15,58,24.20
2023,10,07,15,59,24.20
2023,10,07,16,00,24.20
2023,10,07,16,01,24.20
2023,10,07,16,02,24.20
2023,10,07,16,03,24.20
2023,10,07,16,04,24.20
2023,10,07,16,05,24.20
2023,10,07,16,06,24.20
2023,10,07,16,07,24.20
2023,10,07,16,08,24.20
2023,10,07,16,09,24.20
2023,10,07,16,10,24.20
2023,10,07,16,11,24.20
2023,10,07,16,12,24.30
2023,10,07,16,13,24.30
2023,10,07,16,14,24.30
2023,10,07,16,15,24.30
2023,10,07,16,16,24.30
2023,10,07,16,17,24.30
2023,10,07,16,18,24.30
2023,10,07,16,19,24.30
2023,10,07,16,20,24.30
2023,10,07,16,21,24.30
2023,10,07,16,22,24.30
2023,10,07,16,23,24.30
2023,10,07,16,24,24.30
2023,10,07,16,25,24.30
2023,10,07,16,26,24.30
2023,10,07,16,27,24.30
2023,10,07,16,28,24.30
2023,10,07,16,29,24.30
2023,10,07,16,30,24.30
2023,10,07,16,31,24.30
2023,10,07,16,32,24.30
2023,10,07,16,33,24.20
2023,10,07,16,34,24.30
2023,10,07,16,35,24.30
2023,10,07,16,36,24.30
2023,10,07,16,37,24.30
2023,10,07,16,38,24.30
2023,10,07,16,39,24.40
2023,10,07,16,40,24.40
2023,10,07,16,41,24.40
2023,10,07,16,42,24.50
2023,10,07,16,43,24.50
2023,10,07,16,44,24.50
2023,10,07,16,45,24.50
2023,10,07,16,46,24.60
2023,10,07,16,47,24.60
2023,10,07,16,48,24.60
2023,10,07,16,49,24.50
2023,10,07,16,50,24.50
2023,10,07,16,51,24.60
2023,10,07,16,52,24.60
2023,10,07,16,53,24.60
2023,10,07,16,54,24.60
2023,10,07,16,55,24.60
2023,10,07,16,56,24.60
2023,10,07,16,57,24.60
2023,10,07,16,58,24.60
2023,10,07,16,59,24.50
2023,10,07,17,00,24.40
2023,10,07,17,01,24.30
2023,10,07,17,02,24.10
2023,10,07,17,03,23.90
2023,10,07,17,04,23.70
2023,10,07,17,05,23.60
2023,10,07,17,06,23.40
2023,10,07,17,07,23.30
2023,10,07,17,08,23.30
2023,10,07,17,09,23.20
2023,10,07,17,10,23.10
2023,10,07,17,11,22.90
2023,10,07,17,12,22.70
2023,10,07,17,13,22.50
2023,10,07,17,14,22.30
2023,10,07,17,15,22.10
2023,10,07,17,16,21.90
2023,10,07,17,17,21.70
2023,10,07,17,18,21.50
2023,10,07,17,19,21.30